JAI617 VABB-VAPO

Flight info

Callsign JAI617
Flight time 0h 23m
Altitude 9000
Route BBB W28 PPN
Aircraft B38M/M-SDE1FGHILORVWXY/HB1

Departure

Time 2026-05-05 18:11
Airport Chhatrapati Shivaji Maharaj International Airport (VABB)

Arrival

Time 2026-05-05 18:35
Airport Pune International Airport (VAPO)
Time Latitude Longitude Altitude Speed Heading
2026-05-05 17:58 19.09315 72.87145 48 ft 0 kts 359°
2026-05-05 18:05 19.09313 72.87145 48 ft 2 kts 359°
2026-05-05 18:05 19.09288 72.87146 52 ft 3 kts 359°
2026-05-05 18:05 19.09265 72.87145 48 ft 4 kts 13°
2026-05-05 18:06 19.09243 72.87133 50 ft 4 kts 51°
2026-05-05 18:06 19.09235 72.87118 50 ft 4 kts 80°
2026-05-05 18:06 19.09235 72.87128 49 ft 4 kts 89°
2026-05-05 18:06 19.09235 72.87154 51 ft 4 kts 89°
2026-05-05 18:07 19.09236 72.87182 52 ft 2 kts 89°
2026-05-05 18:07 19.09236 72.87184 52 ft 0 kts 89°
2026-05-05 18:08 19.09236 72.87198 52 ft 4 kts 89°
2026-05-05 18:09 19.09232 72.87243 52 ft 8 kts 115°
2026-05-05 18:09 19.09167 72.87263 46 ft 12 kts 178°
2026-05-05 18:09 19.09075 72.87268 49 ft 13 kts 159°
2026-05-05 18:09 19.09049 72.87345 51 ft 12 kts 90°
2026-05-05 18:10 19.09034 72.87435 49 ft 14 kts 128°
2026-05-05 18:10 19.08943 72.87453 48 ft 13 kts 180°
2026-05-05 18:10 19.08878 72.87398 53 ft 14 kts 269°
2026-05-05 18:10 19.08878 72.87233 53 ft 49 kts 269°
2026-05-05 18:11 19.08869 72.86630 51 ft 113 kts 269°
2026-05-05 18:11 19.08856 72.85619 57 ft 162 kts 269°
2026-05-05 18:11 19.08844 72.84356 415 ft 178 kts 270°
2026-05-05 18:11 19.08807 72.83005 965 ft 184 kts 259°
2026-05-05 18:12 19.08117 72.81950 1781 ft 182 kts 210°
2026-05-05 18:12 19.06828 72.81672 2472 ft 203 kts 176°
2026-05-05 18:12 19.05447 72.82248 3131 ft 228 kts 138°
2026-05-05 18:12 19.04603 72.83716 3915 ft 246 kts 108°
2026-05-05 18:13 19.03984 72.85471 4688 ft 264 kts 114°
2026-05-05 18:13 19.03232 72.87312 5493 ft 279 kts 114°
2026-05-05 18:13 19.02456 72.89189 6481 ft 283 kts 114°
2026-05-05 18:13 19.01670 72.91107 7490 ft 287 kts 114°
2026-05-05 18:14 19.00868 72.93059 8435 ft 294 kts 114°
2026-05-05 18:14 19.00052 72.95047 8768 ft 294 kts 113°
2026-05-05 18:14 18.99240 72.97029 8869 ft 292 kts 114°
2026-05-05 18:14 18.98434 72.99001 8888 ft 292 kts 114°
2026-05-05 18:15 18.97630 73.00965 8892 ft 291 kts 114°
2026-05-05 18:15 18.96827 73.02929 8893 ft 291 kts 114°
2026-05-05 18:15 18.96024 73.04890 8893 ft 291 kts 114°
2026-05-05 18:15 18.95231 73.06827 8895 ft 291 kts 114°
2026-05-05 18:16 18.94430 73.08783 8893 ft 291 kts 114°
2026-05-05 18:16 18.93625 73.10745 8906 ft 291 kts 114°
2026-05-05 18:16 18.92820 73.12711 8907 ft 291 kts 114°
2026-05-05 18:16 18.92016 73.14671 8903 ft 291 kts 114°
2026-05-05 18:17 18.91211 73.16634 8907 ft 291 kts 114°
2026-05-05 18:17 18.90405 73.18598 8908 ft 291 kts 114°
2026-05-05 18:17 18.89598 73.20563 8904 ft 291 kts 114°
2026-05-05 18:17 18.88793 73.22523 8904 ft 291 kts 114°
2026-05-05 18:18 18.87989 73.24480 8922 ft 291 kts 114°
2026-05-05 18:18 18.87194 73.26417 8922 ft 291 kts 114°
2026-05-05 18:18 18.86389 73.28374 8923 ft 291 kts 114°
2026-05-05 18:18 18.85584 73.30332 8921 ft 291 kts 115°
2026-05-05 18:19 18.84778 73.32291 8923 ft 290 kts 115°
2026-05-05 18:19 18.83976 73.34240 8923 ft 290 kts 115°
2026-05-05 18:19 18.83171 73.36195 8923 ft 290 kts 115°
2026-05-05 18:19 18.82367 73.38148 8934 ft 290 kts 115°
2026-05-05 18:20 18.81564 73.40096 8945 ft 290 kts 115°
2026-05-05 18:20 18.80738 73.42041 8931 ft 289 kts 117°
2026-05-05 18:20 18.79868 73.43951 8956 ft 289 kts 117°
2026-05-05 18:20 18.79000 73.45868 8945 ft 289 kts 117°
2026-05-05 18:21 18.78145 73.47761 8942 ft 289 kts 117°
2026-05-05 18:21 18.77279 73.49677 8937 ft 289 kts 116°
2026-05-05 18:21 18.76413 73.51594 8949 ft 290 kts 117°
2026-05-05 18:21 18.75547 73.53514 8949 ft 290 kts 117°
2026-05-05 18:22 18.74680 73.55432 8947 ft 289 kts 117°
2026-05-05 18:22 18.73817 73.57344 8946 ft 290 kts 117°
2026-05-05 18:22 18.72949 73.59264 8949 ft 290 kts 116°
2026-05-05 18:22 18.72081 73.61185 8947 ft 289 kts 117°
2026-05-05 18:23 18.71213 73.63102 8969 ft 288 kts 117°
2026-05-05 18:23 18.70351 73.65008 8945 ft 287 kts 117°
2026-05-05 18:23 18.69491 73.66913 8952 ft 288 kts 116°
2026-05-05 18:23 18.68628 73.68818 8950 ft 288 kts 116°
2026-05-05 18:24 18.67765 73.70723 8948 ft 288 kts 116°
2026-05-05 18:24 18.66900 73.72632 8953 ft 287 kts 116°
2026-05-05 18:24 18.66040 73.74532 8946 ft 288 kts 116°
2026-05-05 18:24 18.65177 73.76438 8952 ft 288 kts 116°
2026-05-05 18:25 18.64311 73.78345 8951 ft 288 kts 116°
2026-05-05 18:25 18.64030 73.78963 8950 ft 288 kts 116°
2026-05-05 18:25 18.62591 73.82137 8949 ft 287 kts 116°
2026-05-05 18:25 18.61727 73.84041 8953 ft 288 kts 116°
2026-05-05 18:26 18.60872 73.85926 8951 ft 288 kts 116°
2026-05-05 18:26 18.60004 73.87836 8957 ft 288 kts 116°
2026-05-05 18:26 18.59137 73.89745 8955 ft 288 kts 116°
2026-05-05 18:26 18.58239 73.91615 8731 ft 285 kts 122°
2026-05-05 18:27 18.57180 73.93376 8429 ft 283 kts 123°
2026-05-05 18:27 18.56133 73.95130 8141 ft 281 kts 123°
2026-05-05 18:27 18.55102 73.96873 7854 ft 279 kts 123°
2026-05-05 18:27 18.54094 73.98589 7547 ft 279 kts 123°
2026-05-05 18:28 18.52060 74.02065 6935 ft 278 kts 121°
2026-05-05 18:28 18.51056 74.03785 6653 ft 277 kts 121°
2026-05-05 18:28 18.50056 74.05498 6466 ft 271 kts 121°
2026-05-05 18:29 18.49219 74.07238 6294 ft 263 kts 103°
2026-05-05 18:29 18.49175 74.09109 6102 ft 253 kts 74°
2026-05-05 18:29 18.49610 74.10227 5998 ft 246 kts 56°
2026-05-05 18:29 18.51265 74.11771 5649 ft 238 kts 21°
2026-05-05 18:30 18.52851 74.12153 5354 ft 233 kts 356°
2026-05-05 18:30 18.53906 74.12018 5173 ft 228 kts 340°
2026-05-05 18:30 18.55622 74.10842 4904 ft 218 kts 311°
2026-05-05 18:30 18.56229 74.10011 4815 ft 216 kts 300°
2026-05-05 18:31 18.56759 74.08569 4597 ft 208 kts 285°
2026-05-05 18:31 18.57120 74.07124 4369 ft 201 kts 281°
2026-05-05 18:31 18.57327 74.05699 4141 ft 190 kts 277°
2026-05-05 18:31 18.57444 74.04351 3916 ft 179 kts 275°
2026-05-05 18:32 18.57526 74.03092 3716 ft 161 kts 275°
2026-05-05 18:32 18.57595 74.02000 3561 ft 141 kts 275°
2026-05-05 18:32 18.57659 74.00983 3379 ft 139 kts 275°
2026-05-05 18:32 18.57723 73.99983 3188 ft 138 kts 274°
2026-05-05 18:33 18.57787 73.98964 3001 ft 141 kts 274°
2026-05-05 18:33 18.57852 73.97915 2826 ft 145 kts 273°
2026-05-05 18:33 18.57921 73.96850 2666 ft 146 kts 274°
2026-05-05 18:33 18.57988 73.95762 2468 ft 149 kts 275°
2026-05-05 18:34 18.58058 73.94673 2273 ft 150 kts 274°
2026-05-05 18:34 18.58127 73.93570 2068 ft 150 kts 274°
2026-05-05 18:34 18.58196 73.92493 1927 ft 139 kts 274°
2026-05-05 18:34 18.58240 73.91758 1922 ft 71 kts 274°
2026-05-05 18:35 18.58268 73.91308 1923 ft 29 kts 274°
2026-05-05 18:35 18.58241 73.91134 1923 ft 17 kts 246°
2026-05-05 18:35 18.58227 73.91100 1923 ft 1 kts 246°
2026-05-05 18:35 18.58220 73.91084 1923 ft 3 kts 246°
2026-05-05 18:36 18.58205 73.91054 1923 ft 6 kts 235°
2026-05-05 18:36 18.58167 73.91036 1922 ft 7 kts 190°
2026-05-05 18:36 18.58112 73.91025 1922 ft 9 kts 191°
2026-05-05 18:36 18.58048 73.91015 1922 ft 9 kts 188°
2026-05-05 18:37 18.58012 73.91010 1924 ft 3 kts 189°
2026-05-05 18:37 18.57996 73.91007 1921 ft 2 kts 189°
2026-05-05 18:37 18.57992 73.91006 1921 ft 0 kts 189°
2026-05-05 18:38 18.57993 73.91006 1921 ft 0 kts 189°